This is the latest recevied weather packets stored in our database for station/object OE3PDB-3. If no packets are shown the sender has not sent any weather packets the latest 10 day(s).
| Time | Temp. | Humidity | Pressure | Rain* | Wind** | Luminosity | Snow |
|---|---|---|---|---|---|---|---|
| 1787776827 | 19.44° C | 65% | 1018.2 hPa | 0 mm | - | - | - |
| 1787776227 | 19.44° C | 64% | 1018.2 hPa | 0 mm | - | - | - |
| 1787775627 | 19.44° C | 63% | 1018.3 hPa | 0 mm | - | - | - |
| 1787775027 | 19.44° C | 63% | 1018.3 hPa | 0 mm | - | - | - |
| 1787774427 | 20° C | 63% | 1018.2 hPa | 0 mm | - | - | - |
| 1787773827 | 20° C | 63% | 1018 hPa | 0 mm | - | - | - |
| 1787773227 | 20° C | 62% | 1018 hPa | 0 mm | - | - | - |
| 1787772627 | 20° C | 62% | 1017.9 hPa | 0 mm | - | - | - |
| 1787772027 | 20.56° C | 61% | 1017.8 hPa | 0 mm | - | - | - |
| 1787771427 | 20.56° C | 60% | 1017.8 hPa | 0 mm | - | - | - |
| 1787770827 | 21.11° C | 58% | 1017.8 hPa | 0 mm | - | - | - |
| 1787770227 | 21.11° C | 57% | 1017.6 hPa | 0 mm | - | - | - |
| 1787769627 | 21.67° C | 56% | 1017.7 hPa | 0 mm | - | - | - |
| 1787769027 | 21.67° C | 55% | 1017.6 hPa | 0 mm | - | - | - |
| 1787768427 | 22.22° C | 53% | 1017.5 hPa | 0 mm | - | - | - |
| 1787767827 | 22.78° C | 53% | 1017.5 hPa | 0 mm | - | - | - |
| 1787767227 | 22.78° C | 52% | 1017.4 hPa | 0 mm | - | - | - |
| 1787766627 | 23.33° C | 51% | 1017.4 hPa | 0 mm | - | - | - |
| 1787766027 | 23.89° C | 50% | 1017.4 hPa | 0 mm | - | - | - |
| 1787765427 | 23.89° C | 49% | 1017.4 hPa | 0 mm | - | - | - |
| 1787764827 | 24.44° C | 48% | 1017.4 hPa | 0 mm | - | - | - |
| 1787764227 | 25° C | 47% | 1017.4 hPa | 0 mm | - | - | - |
| 1787763627 | 26.11° C | 46% | 1017.3 hPa | 0 mm | - | - | - |
| 1787763027 | 26.67° C | 45% | 1017.2 hPa | 0 mm | - | - | - |
| 1787762427 | 26.67° C | 45% | 1017.3 hPa | 0 mm | - | - | - |
* Rain latest hour (hover to see other rain measurements)
** Current wind speed in m/s (hover to see current wind gust speed)